Professional Rodeo Cowboys Association
PRCA RAM WORLD STANDINGS
ProRodeo Gear Official Merchandise Of The PRCA

PRCA Stock Statistics

SEARCH BY:
Stock Rodeo Contestant Stock Contractor

Mark Kreder

EVENT:
Unofficial results reflect placement at time of Web posting and can change.

SEASON BREAKDOWN

Season Attempts Qual Rides Re-rides Ride %
2019 61 55 0 90.16 %
2018 67 62 0 92.54 %
2017 6 4 0 66.67 %
Totals 134 121 0 0.00 %

RODEO DETAIL

Date Location Rodeo SC Brand Ride Comments Stock Score Contestant Score
7/13/2019 Isanti, MN 43rd Annual Isanti Firefighters Rodeo DK 770 85.00 21.00 / 21.00 22.00 / 21.00
7/12/2019 Hamel, MN Hamel Rodeo & Bull Ridin Bonanza CP 406 75.00 19.00 / 19.00 20.00 / 17.00
7/11/2019 Wolf Point, MT Wolf Point Wild Horse Stampede BR 014 73.00 22.00 / 21.00 15.00 / 15.00
7/10/2019 Estes Park, CO Rooftop Rodeo CC -Q63 79.00 18.00 / 19.00 20.50 / 21.50
7/6/2019 Oakley City, UT Oakley Independence Day Rodeo BT A+1 82.50 19.00 / 21.00 23.00 / 19.50
7/5/2019 West Jordan, UT West Jordan Western Stampede CC -Q39 78.50 20.50 / 22.00 18.00 / 18.00
7/4/2019 Window Rock, AZ Annual Fourth Of July Celebration C5 061 0.00 20.50 / 19.50 0.00 / 0.00
7/3/2019 Prescott, AZ World s Oldest Rodeo UP 820 71.00 22.00 / 21.00 15.00 / 13.00
7/2/2019 Red Lodge, MT Home Of Champions Rodeo BR E6 76.00 19.00 / 22.00 20.00 / 15.00
7/1/2019 Cody, WY Cody Stampede SM X3 81.50 21.00 / 20.00 21.50 / 19.00
6/28/2019 Pecos, TX West Of The Pecos Rodeo CR 22 73.00 21.00 / 19.00 20.00 / 13.00
6/27/2019 Springdale, AR Rodeo of The Ozarks SS 315 82.00 19.00 / 19.50 22.00 / 21.50
6/22/2019 Bellevue, IA Jackson County Pro Rodeo TH J23 80.50 19.00 / 20.50 22.00 / 19.00
6/21/2019 Granite Falls, MN Western Fest Stampede Rodeo CP 400 80.00 19.00 / 19.00 21.00 / 21.00
6/20/2019 Buffalo, MN Buffalo Championship PRCA Rodeo BA 15H0 77.00 20.00 / 21.00 18.00 / 18.00
6/13/2019 Coleman, TX Coleman PRCA Rodeo SS L18 82.00 22.50 / 22.00 19.50 / 18.00
6/12/2019 Weatherford, TX Parker County Sheriffs Posse Frontier Days And PRCA Rodeo CR 408 76.00 22.00 / 22.00 17.00 / 15.00
6/9/2019 Elizabeth, CO Elizabeth Stampede Rodeo SM 949 78.00 21.00 / 21.00 18.00 / 18.00
6/7/2019 Ponca City, OK 101 Wild West Rodeo AN C222 83.00 21.00 / 20.00 21.00 / 21.00
6/1/2019 Fort Smith, AR Old Fort Days Rodeo AN 181 79.00 20.50 / 19.00 20.50 / 19.00
5/31/2019 Hugo, OK Hugo PRCA Rodeo RH 255 65.00 17.50 / 18.00 17.50 / 12.00
5/30/2019 Licking, MO Licking Chamber of Commerce PRCA Rodeo PK 100 74.00 19.00 / 19.00 18.00 / 18.00
5/26/2019 Claremore, OK Will Rogers Stampede CR 196 68.00 16.00 / 18.00 18.00 / 16.00
5/25/2019 Farmington, MO Auto Plaza Group PRCA Reginal Rodeo UR F2 83.00 21.50 / 19.00 21.50 / 21.00
5/23/2019 Garden City, KS Beef Empire Days PRCA Rodeo KR 022 75.00 19.50 / 22.00 17.50 / 16.00
Page of 3
Per Page
 
 
 
PRCA Sponsors


MGM Grand Polaris Ranger American Quarter Horse Association Cinch Jeans Gold Buckle Beer Outlaw Equine

Copyright © 2019 Professional Rodeo Cowboys Association. All rights reserved. No portion of ProRodeo.com may be duplicated, redistributed or manipulated in any form. By accessing any information beyond this page, you agree to abide by the Terms of Use.


PRCA Wrangler National Finals Rodeo Wrangler ProRodeo Tour Finale Presented by Justin Boots Xtreme Bulls RAM National Circuit Finals Rodeo ProRodeo Gear ProRodeo Tour World Standings Tour Standings PRCA Rodeo Schedule Rodeo Results Facebook Twitter Instagram YouTube Mobile App ProRodeoTv.Com